User: anonymous   Login
Location: Unspecified
(49.2170°N, 0.0000°E)
Time: 13:55:57
(UTC+00:00)
Language:

Altair - Orbit

View from above orbital plane
View from above orbital plane
View from above satellite
View from above satellite

Ground track
Ground track

The orbit data is extracted from the following two-line orbital elements,

1    50U 60009B   19176.79466539 -.00000075 +00000-0 +97949-4 0  9998
2    50 047.2292 151.3191 0114221 339.4048 020.2159 12.20109681626559
Epoch (UTC): 25 June 2019 19:04:19
Eccentricity: 0.0114221
inclination: 47.2292°
perigee height: 1501 km
apogee height: 1683 km
right ascension of ascending node: 151.3191°
argument of perigee: 339.4048°
revolutions per day: 12.20109681
mean anomaly at epoch: 20.2159°
orbit number at epoch: 62655

The dashed part of the orbit path shows where the satellite is in the earth's shadow,  

DLR